Time,TemperatureF,DewpointF,PressureIn,WindDirection,WindDirectionDegrees,WindSpeedMPH,WindSpeedGustMPH,Humidity,HourlyPrecipIn,Conditions,Clouds,dailyrainin,SoftwareType,DateUTC
2013-09-19 00:01:00,56.0,53.0,30.25,NW,315,4.4,5.0,89,0.00,,,0.00,Rainwise IP-100,2013-09-19 04:01:00,
2013-09-19 00:06:00,55.9,53.0,30.25,NNW,337,3.7,5.0,89,0.00,,,0.00,Rainwise IP-100,2013-09-19 04:06:00,
2013-09-19 00:11:00,55.6,53.0,30.25,NNW,337,4.9,4.9,89,0.00,,,0.00,Rainwise IP-100,2013-09-19 04:11:00,
2013-09-19 00:16:00,55.1,52.0,30.25,NNW,337,4.0,5.0,89,0.00,,,0.00,Rainwise IP-100,2013-09-19 04:16:00,
2013-09-19 00:21:00,54.6,52.0,30.24,NNW,337,3.5,5.0,90,0.00,,,0.00,Rainwise IP-100,2013-09-19 04:21:00,
2013-09-19 00:27:00,54.4,52.0,30.25,NNW,337,3.0,4.0,90,0.00,,,0.00,Rainwise IP-100,2013-09-19 04:27:00,
2013-09-19 00:32:00,54.3,51.0,30.24,NNW,337,4.0,4.0,91,0.00,,,0.00,Rainwise IP-100,2013-09-19 04:32:00,
2013-09-19 00:37:00,54.5,52.0,30.25,WNW,292,3.5,6.0,91,0.00,,,0.00,Rainwise IP-100,2013-09-19 04:37:00,
2013-09-19 00:42:00,54.8,53.0,30.25,WNW,292,3.7,4.0,92,0.00,,,0.00,Rainwise IP-100,2013-09-19 04:42:00,
2013-09-19 00:47:00,55.1,53.0,30.25,NW,315,3.3,4.0,92,0.00,,,0.00,Rainwise IP-100,2013-09-19 04:47:00,
2013-09-19 00:52:00,55.1,53.0,30.25,NW,315,3.7,4.0,92,0.00,,,0.00,Rainwise IP-100,2013-09-19 04:52:00,
2013-09-19 00:57:00,54.9,53.0,30.25,NW,315,2.8,4.0,92,0.00,,,0.00,Rainwise IP-100,2013-09-19 04:57:00,
2013-09-19 01:02:00,54.9,53.0,30.25,NW,315,4.0,4.0,92,0.00,,,0.00,Rainwise IP-100,2013-09-19 05:02:00,
2013-09-19 01:08:00,54.7,53.0,30.25,NW,315,4.0,4.0,92,0.00,,,0.00,Rainwise IP-100,2013-09-19 05:08:00,
2013-09-19 01:13:00,54.5,53.0,30.25,NNW,337,4.2,5.0,92,0.00,,,0.00,Rainwise IP-100,2013-09-19 05:13:00,
2013-09-19 01:18:00,54.1,52.0,30.25,NNW,337,5.1,5.1,92,0.00,,,0.00,Rainwise IP-100,2013-09-19 05:18:00,
2013-09-19 01:23:00,53.8,51.0,30.25,NNW,337,5.4,5.4,92,0.00,,,0.00,Rainwise IP-100,2013-09-19 05:23:00,
2013-09-19 01:28:00,53.8,51.0,30.25,NW,315,4.0,5.0,93,0.00,,,0.00,Rainwise IP-100,2013-09-19 05:28:00,
2013-09-19 01:33:00,53.9,52.0,30.25,NW,315,4.4,4.4,93,0.00,,,0.00,Rainwise IP-100,2013-09-19 05:33:00,
2013-09-19 01:38:00,54.1,52.0,30.25,NW,315,4.2,5.0,93,0.00,,,0.00,Rainwise IP-100,2013-09-19 05:38:00,
2013-09-19 01:44:00,54.3,52.0,30.25,WNW,292,4.9,5.0,93,0.00,,,0.00,Rainwise IP-100,2013-09-19 05:44:00,
2013-09-19 01:49:00,54.5,53.0,30.25,WNW,292,7.0,7.0,93,0.00,,,0.00,Rainwise IP-100,2013-09-19 05:49:00,
2013-09-19 01:54:00,54.7,53.0,30.25,WNW,292,4.7,7.0,93,0.00,,,0.00,Rainwise IP-100,2013-09-19 05:54:00,
2013-09-19 01:59:00,55.0,53.0,30.24,WNW,292,5.1,6.0,92,0.00,,,0.00,Rainwise IP-100,2013-09-19 05:59:00,
2013-09-19 02:04:00,55.3,53.0,30.25,WNW,292,5.6,6.0,91,0.00,,,0.00,Rainwise IP-100,2013-09-19 06:04:00,
2013-09-19 02:09:00,55.4,53.0,30.24,WNW,292,4.9,6.0,91,0.00,,,0.00,Rainwise IP-100,2013-09-19 06:09:00,
2013-09-19 02:14:00,55.4,53.0,30.24,WNW,292,4.0,7.0,90,0.00,,,0.00,Rainwise IP-100,2013-09-19 06:14:00,
2013-09-19 02:19:00,55.4,53.0,30.24,WNW,292,4.2,6.0,90,0.00,,,0.00,Rainwise IP-100,2013-09-19 06:19:00,
2013-09-19 02:25:00,55.5,53.0,30.24,NW,315,4.7,5.0,90,0.00,,,0.00,Rainwise IP-100,2013-09-19 06:25:00,
2013-09-19 02:30:00,55.5,53.0,30.24,WNW,292,3.7,5.0,90,0.00,,,0.00,Rainwise IP-100,2013-09-19 06:30:00,
2013-09-19 02:35:00,55.3,53.0,30.24,WNW,292,4.9,6.0,90,0.00,,,0.00,Rainwise IP-100,2013-09-19 06:35:00,
2013-09-19 02:40:00,55.1,53.0,30.23,WNW,292,4.7,5.0,91,0.00,,,0.00,Rainwise IP-100,2013-09-19 06:40:00,
2013-09-19 02:45:00,54.9,53.0,30.24,WNW,292,5.4,6.0,91,0.00,,,0.00,Rainwise IP-100,2013-09-19 06:45:00,
2013-09-19 02:50:00,54.9,53.0,30.23,NW,315,4.0,6.0,91,0.00,,,0.00,Rainwise IP-100,2013-09-19 06:50:00,
2013-09-19 02:55:00,54.7,52.0,30.23,NNW,337,3.3,5.0,91,0.00,,,0.00,Rainwise IP-100,2013-09-19 06:55:00,
2013-09-19 03:01:00,54.3,51.0,30.24,NNW,337,4.7,5.0,91,0.00,,,0.00,Rainwise IP-100,2013-09-19 07:01:00,
2013-09-19 03:06:00,53.9,51.0,30.23,NW,315,4.2,5.0,91,0.00,,,0.00,Rainwise IP-100,2013-09-19 07:06:00,
2013-09-19 03:11:00,53.7,51.0,30.23,NW,315,4.9,5.0,92,0.00,,,0.00,Rainwise IP-100,2013-09-19 07:11:00,
2013-09-19 03:16:00,53.7,51.0,30.23,NW,315,4.4,5.0,92,0.00,,,0.00,Rainwise IP-100,2013-09-19 07:16:00,
2013-09-19 03:21:00,53.5,51.0,30.22,WNW,292,4.0,5.0,93,0.00,,,0.00,Rainwise IP-100,2013-09-19 07:21:00,
2013-09-19 03:26:00,53.6,51.0,30.23,WNW,292,4.9,5.0,93,0.00,,,0.00,Rainwise IP-100,2013-09-19 07:26:00,
2013-09-19 03:31:00,53.8,51.0,30.23,WNW,292,4.9,6.0,93,0.00,,,0.00,Rainwise IP-100,2013-09-19 07:31:00,
2013-09-19 03:36:00,54.0,52.0,30.22,WNW,292,4.4,5.0,93,0.00,,,0.00,Rainwise IP-100,2013-09-19 07:36:00,
2013-09-19 03:42:00,54.0,52.0,30.22,NNW,337,3.3,5.0,93,0.00,,,0.00,Rainwise IP-100,2013-09-19 07:42:00,
2013-09-19 03:47:00,53.4,51.0,30.22,NNW,337,3.0,4.0,93,0.00,,,0.00,Rainwise IP-100,2013-09-19 07:47:00,
2013-09-19 03:52:00,52.8,50.0,30.23,NNW,337,4.0,4.0,93,0.00,,,0.00,Rainwise IP-100,2013-09-19 07:52:00,
2013-09-19 03:57:00,52.3,50.0,30.22,NNW,337,3.7,5.0,93,0.00,,,0.00,Rainwise IP-100,2013-09-19 07:57:00,
2013-09-19 04:02:00,52.0,50.0,30.22,NNW,337,5.4,5.4,93,0.00,,,0.00,Rainwise IP-100,2013-09-19 08:02:00,
2013-09-19 04:07:00,51.8,50.0,30.22,NNW,337,4.2,5.0,94,0.00,,,0.00,Rainwise IP-100,2013-09-19 08:07:00,
2013-09-19 04:12:00,51.6,50.0,30.22,NNW,337,3.0,4.0,94,0.00,,,0.00,Rainwise IP-100,2013-09-19 08:12:00,
2013-09-19 04:18:00,51.6,50.0,30.22,NNW,337,4.0,4.0,95,0.00,,,0.00,Rainwise IP-100,2013-09-19 08:18:00,
2013-09-19 04:23:00,51.5,50.0,30.23,NNW,337,2.8,4.0,95,0.00,,,0.00,Rainwise IP-100,2013-09-19 08:23:00,
2013-09-19 04:28:00,51.3,50.0,30.22,NNW,337,3.0,4.0,95,0.00,,,0.00,Rainwise IP-100,2013-09-19 08:28:00,
2013-09-19 04:33:00,51.2,50.0,30.23,NNW,337,2.8,3.0,95,0.00,,,0.00,Rainwise IP-100,2013-09-19 08:33:00,
2013-09-19 04:38:00,51.1,50.0,30.22,NNW,337,3.7,4.0,95,0.00,,,0.00,Rainwise IP-100,2013-09-19 08:38:00,
2013-09-19 04:43:00,51.0,50.0,30.22,NNW,337,3.7,4.0,95,0.00,,,0.00,Rainwise IP-100,2013-09-19 08:43:00,
2013-09-19 04:48:00,50.9,50.0,30.22,NNW,337,3.7,4.0,95,0.00,,,0.00,Rainwise IP-100,2013-09-19 08:48:00,
2013-09-19 04:53:00,50.8,50.0,30.22,NNW,337,3.0,4.0,96,0.00,,,0.00,Rainwise IP-100,2013-09-19 08:53:00,
2013-09-19 04:59:00,50.7,50.0,30.22,NNW,337,1.9,3.0,96,0.00,,,0.00,Rainwise IP-100,2013-09-19 08:59:00,
2013-09-19 05:04:00,50.6,50.0,30.22,NNW,337,1.6,2.0,96,0.00,,,0.00,Rainwise IP-100,2013-09-19 09:04:00,
2013-09-19 05:09:00,50.4,50.0,30.22,NNW,337,2.1,2.1,96,0.00,,,0.00,Rainwise IP-100,2013-09-19 09:09:00,
2013-09-19 05:14:00,50.4,50.0,30.22,NNW,337,0.0,3.0,96,0.00,,,0.00,Rainwise IP-100,2013-09-19 09:14:00,
2013-09-19 05:19:00,50.9,50.0,30.22,NNW,337,1.6,2.0,96,0.00,,,0.00,Rainwise IP-100,2013-09-19 09:19:00,
2013-09-19 05:24:00,51.3,50.0,30.22,NNW,337,0.0,2.0,97,0.00,,,0.00,Rainwise IP-100,2013-09-19 09:24:00,
2013-09-19 05:29:00,51.2,50.0,30.22,NNW,337,0.0,1.0,97,0.00,,,0.00,Rainwise IP-100,2013-09-19 09:29:00,
2013-09-19 05:35:00,51.2,50.0,30.23,NNW,337,1.2,2.0,97,0.00,,,0.00,Rainwise IP-100,2013-09-19 09:35:00,
2013-09-19 05:40:00,51.2,50.0,30.23,NNW,337,2.1,2.1,97,0.00,,,0.00,Rainwise IP-100,2013-09-19 09:40:00,
2013-09-19 05:45:00,51.3,50.0,30.22,NNW,337,1.2,2.0,97,0.00,,,0.00,Rainwise IP-100,2013-09-19 09:45:00,
2013-09-19 05:50:00,51.3,50.0,30.22,NNW,337,1.2,2.0,97,0.00,,,0.00,Rainwise IP-100,2013-09-19 09:50:00,
2013-09-19 05:52:00,51.3,50.0,30.22,NNW,337,0.0,2.0,97,0.00,,,0.00,Rainwise IP-100,2013-09-19 09:52:00,
2013-09-19 05:57:00,51.1,50.0,30.22,NNW,337,0.0,1.0,97,0.00,,,0.00,Rainwise IP-100,2013-09-19 09:57:00,
2013-09-19 06:00:00,50.9,50.0,30.23,NNW,337,0.0,1.0,97,0.00,,,0.00,Rainwise IP-100,2013-09-19 10:00:00,
2013-09-19 06:06:00,50.7,50.0,30.22,NNW,337,0.0,1.0,97,0.00,,,0.00,Rainwise IP-100,2013-09-19 10:06:00,
2013-09-19 06:11:00,50.6,50.0,30.22,NNW,337,1.4,1.4,97,0.00,,,0.00,Rainwise IP-100,2013-09-19 10:11:00,
2013-09-19 06:16:00,50.6,50.0,30.23,NNW,337,0.0,2.0,97,0.00,,,0.00,Rainwise IP-100,2013-09-19 10:16:00,
2013-09-19 06:21:00,50.4,50.0,30.22,NNW,337,0.0,1.0,97,0.00,,,0.00,Rainwise IP-100,2013-09-19 10:21:00,
2013-09-19 06:26:00,50.4,50.0,30.23,NNW,337,1.9,2.0,97,0.00,,,0.00,Rainwise IP-100,2013-09-19 10:26:00,
2013-09-19 06:31:00,50.5,50.0,30.23,NNW,337,0.0,2.0,98,0.00,,,0.00,Rainwise IP-100,2013-09-19 10:31:00,
2013-09-19 06:36:00,50.4,50.0,30.23,NNW,337,0.0,1.0,98,0.00,,,0.00,Rainwise IP-100,2013-09-19 10:36:00,
2013-09-19 06:41:00,50.4,50.0,30.23,NNW,337,0.0,1.0,98,0.00,,,0.00,Rainwise IP-100,2013-09-19 10:41:00,
2013-09-19 06:47:00,50.5,50.0,30.23,NNW,337,0.0,1.0,98,0.00,,,0.00,Rainwise IP-100,2013-09-19 10:47:00,
2013-09-19 06:52:00,50.6,50.0,30.24,NNW,337,2.1,2.1,98,0.00,,,0.00,Rainwise IP-100,2013-09-19 10:52:00,
2013-09-19 06:57:00,50.8,50.0,30.23,NNW,337,2.8,4.0,98,0.00,,,0.00,Rainwise IP-100,2013-09-19 10:57:00,
2013-09-19 07:02:00,50.9,50.0,30.23,NNW,337,1.6,4.0,98,0.00,,,0.00,Rainwise IP-100,2013-09-19 11:02:00,
2013-09-19 07:07:00,50.8,50.0,30.24,NNW,337,0.0,2.0,98,0.00,,,0.00,Rainwise IP-100,2013-09-19 11:07:00,
2013-09-19 07:12:00,50.8,50.0,30.23,NNW,337,0.0,1.0,98,0.00,,,0.00,Rainwise IP-100,2013-09-19 11:12:00,
2013-09-19 07:17:00,51.0,50.0,30.24,NNW,337,0.0,1.0,98,0.00,,,0.00,Rainwise IP-100,2013-09-19 11:17:00,
2013-09-19 07:23:00,51.3,50.0,30.23,NNW,337,2.1,2.1,98,0.00,,,0.00,Rainwise IP-100,2013-09-19 11:23:00,
2013-09-19 07:28:00,51.6,51.0,30.23,West,270,1.9,2.0,98,0.00,,,0.00,Rainwise IP-100,2013-09-19 11:28:00,
2013-09-19 07:33:00,52.0,51.0,30.23,WSW,247,0.0,2.0,98,0.00,,,0.00,Rainwise IP-100,2013-09-19 11:33:00,
2013-09-19 07:38:00,52.4,51.0,30.23,WSW,247,0.0,1.0,98,0.00,,,0.00,Rainwise IP-100,2013-09-19 11:38:00,
2013-09-19 07:43:00,52.9,52.0,30.23,WSW,247,0.0,1.0,97,0.00,,,0.00,Rainwise IP-100,2013-09-19 11:43:00,
2013-09-19 07:48:00,53.3,51.0,30.23,WNW,292,0.0,2.0,96,0.00,,,0.00,Rainwise IP-100,2013-09-19 11:48:00,
2013-09-19 07:53:00,53.9,53.0,30.23,WNW,292,0.0,2.0,96,0.00,,,0.00,Rainwise IP-100,2013-09-19 11:53:00,
2013-09-19 07:58:00,54.8,53.0,30.23,WNW,292,1.6,1.6,95,0.00,,,0.00,Rainwise IP-100,2013-09-19 11:58:00,
2013-09-19 08:04:00,55.2,53.0,30.23,WNW,292,0.0,1.0,93,0.00,,,0.00,Rainwise IP-100,2013-09-19 12:04:00,
2013-09-19 08:09:00,55.9,53.0,30.23,WSW,247,2.3,3.0,91,0.00,,,0.00,Rainwise IP-100,2013-09-19 12:09:00,
2013-09-19 08:14:00,56.6,53.0,30.23,WSW,247,3.0,3.0,89,0.00,,,0.00,Rainwise IP-100,2013-09-19 12:14:00,
2013-09-19 08:19:00,56.8,53.0,30.23,WNW,292,3.5,4.0,87,0.00,,,0.00,Rainwise IP-100,2013-09-19 12:19:00,
2013-09-19 08:24:00,56.8,52.0,30.23,WSW,247,2.8,5.0,84,0.00,,,0.00,Rainwise IP-100,2013-09-19 12:24:00,
2013-09-19 08:29:00,57.1,52.0,30.23,WSW,247,2.3,4.0,83,0.00,,,0.00,Rainwise IP-100,2013-09-19 12:29:00,
2013-09-19 08:34:00,57.4,52.0,30.23,WSW,247,0.0,2.0,81,0.00,,,0.00,Rainwise IP-100,2013-09-19 12:34:00,
2013-09-19 08:40:00,58.0,52.0,30.23,WSW,247,1.9,4.0,80,0.00,,,0.00,Rainwise IP-100,2013-09-19 12:40:00,
2013-09-19 08:45:00,58.7,53.0,30.22,WSW,247,2.1,4.0,79,0.00,,,0.00,Rainwise IP-100,2013-09-19 12:45:00,
2013-09-19 08:50:00,59.3,52.0,30.22,West,270,1.6,5.0,78,0.00,,,0.00,Rainwise IP-100,2013-09-19 12:50:00,
2013-09-19 08:55:00,59.6,52.0,30.22,West,270,0.0,2.0,76,0.00,,,0.00,Rainwise IP-100,2013-09-19 12:55:00,
2013-09-19 09:00:00,60.5,53.0,30.22,SSW,202,1.6,3.0,76,0.00,,,0.00,Rainwise IP-100,2013-09-19 13:00:00,
2013-09-19 09:05:00,61.5,53.0,30.22,South,180,2.6,4.0,75,0.00,,,0.00,Rainwise IP-100,2013-09-19 13:05:00,
2013-09-19 09:10:00,62.3,53.0,30.22,South,180,4.7,5.0,73,0.00,,,0.00,Rainwise IP-100,2013-09-19 13:10:00,
2013-09-19 09:15:00,62.9,53.0,30.22,South,180,4.0,5.0,71,0.00,,,0.00,Rainwise IP-100,2013-09-19 13:15:00,
2013-09-19 09:21:00,63.0,53.0,30.22,SSW,202,5.1,6.0,70,0.00,,,0.00,Rainwise IP-100,2013-09-19 13:21:00,
2013-09-19 09:26:00,63.0,53.0,30.22,SSW,202,6.1,6.1,70,0.00,,,0.00,Rainwise IP-100,2013-09-19 13:26:00,
2013-09-19 09:31:00,63.1,53.0,30.22,SW,225,3.7,6.0,70,0.00,,,0.00,Rainwise IP-100,2013-09-19 13:31:00,
2013-09-19 09:36:00,63.0,53.0,30.22,West,270,1.6,4.0,70,0.00,,,0.00,Rainwise IP-100,2013-09-19 13:36:00,
2013-09-19 09:41:00,63.1,53.0,30.22,SSW,202,7.2,7.2,70,0.00,,,0.00,Rainwise IP-100,2013-09-19 13:41:00,
2013-09-19 09:46:00,63.9,53.0,30.23,South,180,6.3,7.0,68,0.00,,,0.00,Rainwise IP-100,2013-09-19 13:46:00,
2013-09-19 09:51:00,64.3,53.0,30.23,South,180,2.8,7.0,67,0.00,,,0.00,Rainwise IP-100,2013-09-19 13:51:00,
2013-09-19 09:56:00,64.5,53.0,30.23,SSW,202,8.9,8.9,67,0.00,,,0.00,Rainwise IP-100,2013-09-19 13:56:00,
2013-09-19 10:02:00,64.6,53.0,30.22,SSW,202,4.9,11.0,66,0.00,,,0.00,Rainwise IP-100,2013-09-19 14:02:00,
2013-09-19 10:07:00,64.7,53.0,30.23,SSW,202,5.6,8.0,66,0.00,,,0.00,Rainwise IP-100,2013-09-19 14:07:00,
2013-09-19 10:12:00,65.0,53.0,30.22,SSE,157,4.9,7.0,66,0.00,,,0.00,Rainwise IP-100,2013-09-19 14:12:00,
2013-09-19 10:17:00,65.3,53.0,30.22,South,180,4.0,8.0,65,0.00,,,0.00,Rainwise IP-100,2013-09-19 14:17:00,
2013-09-19 10:22:00,65.7,53.0,30.22,West,270,5.6,7.0,64,0.00,,,0.00,Rainwise IP-100,2013-09-19 14:22:00,
2013-09-19 10:27:00,66.2,53.0,30.22,SSW,202,7.0,9.0,63,0.00,,,0.00,Rainwise IP-100,2013-09-19 14:27:00,
2013-09-19 10:32:00,66.5,53.0,30.21,SSE,157,9.8,10.0,62,0.00,,,0.00,Rainwise IP-100,2013-09-19 14:32:00,
2013-09-19 10:37:00,66.4,53.0,30.21,SSE,157,6.3,11.0,62,0.00,,,0.00,Rainwise IP-100,2013-09-19 14:37:00,
2013-09-19 10:43:00,66.3,53.0,30.21,SSW,202,8.6,8.6,63,0.00,,,0.00,Rainwise IP-100,2013-09-19 14:43:00,
2013-09-19 10:48:00,66.5,54.0,30.22,SSE,157,6.5,10.0,63,0.00,,,0.00,Rainwise IP-100,2013-09-19 14:48:00,
2013-09-19 10:53:00,66.3,53.0,30.21,SSE,157,8.2,9.0,63,0.00,,,0.00,Rainwise IP-100,2013-09-19 14:53:00,
2013-09-19 10:58:00,66.3,54.0,30.21,SSE,157,9.1,10.0,64,0.00,,,0.00,Rainwise IP-100,2013-09-19 14:58:00,
2013-09-19 11:03:00,66.4,53.0,30.21,SSE,157,9.8,11.0,63,0.00,,,0.00,Rainwise IP-100,2013-09-19 15:03:00,
2013-09-19 11:08:00,66.4,53.0,30.21,SSE,157,9.3,10.0,63,0.00,,,0.00,Rainwise IP-100,2013-09-19 15:08:00,
2013-09-19 11:13:00,66.3,53.0,30.21,SSE,157,10.3,11.0,63,0.00,,,0.00,Rainwise IP-100,2013-09-19 15:13:00,
2013-09-19 11:19:00,66.2,53.0,30.21,SSW,202,7.9,11.0,63,0.00,,,0.00,Rainwise IP-100,2013-09-19 15:19:00,
2013-09-19 11:24:00,66.3,53.0,30.20,South,180,8.4,10.0,62,0.00,,,0.00,Rainwise IP-100,2013-09-19 15:24:00,
2013-09-19 11:29:00,66.5,53.0,30.20,SSE,157,8.4,9.0,61,0.00,,,0.00,Rainwise IP-100,2013-09-19 15:29:00,
2013-09-19 11:34:00,66.7,53.0,30.20,South,180,8.6,9.0,61,0.00,,,0.00,Rainwise IP-100,2013-09-19 15:34:00,
2013-09-19 11:39:00,66.8,53.0,30.20,South,180,8.9,11.0,61,0.00,,,0.00,Rainwise IP-100,2013-09-19 15:39:00,
2013-09-19 11:44:00,66.9,53.0,30.20,South,180,9.3,9.3,60,0.00,,,0.00,Rainwise IP-100,2013-09-19 15:44:00,
2013-09-19 11:49:00,67.0,53.0,30.20,South,180,7.2,10.0,60,0.00,,,0.00,Rainwise IP-100,2013-09-19 15:49:00,
2013-09-19 11:53:00,67.0,53.0,30.20,SSE,157,8.6,10.0,60,0.00,,,0.00,Rainwise IP-100,2013-09-19 15:53:00,
2013-09-19 11:58:00,67.0,53.0,30.20,SSE,157,8.4,10.0,60,0.00,,,0.00,Rainwise IP-100,2013-09-19 15:58:00,
2013-09-19 12:03:00,67.1,53.0,30.20,South,180,9.1,10.0,60,0.00,,,0.00,Rainwise IP-100,2013-09-19 16:03:00,
2013-09-19 12:08:00,67.2,53.0,30.20,SSE,157,10.3,10.3,60,0.00,,,0.00,Rainwise IP-100,2013-09-19 16:08:00,
2013-09-19 12:13:00,67.3,53.0,30.19,South,180,9.1,10.0,60,0.00,,,0.00,Rainwise IP-100,2013-09-19 16:13:00,
2013-09-19 12:18:00,67.5,53.0,30.20,South,180,10.3,10.3,60,0.00,,,0.00,Rainwise IP-100,2013-09-19 16:18:00,
2013-09-19 12:24:00,67.5,53.0,30.20,SSE,157,10.5,11.0,59,0.00,,,0.00,Rainwise IP-100,2013-09-19 16:24:00,
2013-09-19 12:29:00,67.5,53.0,30.19,South,180,10.3,11.0,59,0.00,,,0.00,Rainwise IP-100,2013-09-19 16:29:00,
2013-09-19 12:34:00,67.5,53.0,30.19,South,180,10.7,12.0,59,0.00,,,0.00,Rainwise IP-100,2013-09-19 16:34:00,
2013-09-19 12:39:00,67.5,53.0,30.19,South,180,11.4,11.4,59,0.00,,,0.00,Rainwise IP-100,2013-09-19 16:39:00,
2013-09-19 12:44:00,67.6,52.0,30.19,South,180,10.7,11.0,58,0.00,,,0.00,Rainwise IP-100,2013-09-19 16:44:00,
2013-09-19 12:49:00,67.6,52.0,30.19,South,180,10.3,12.0,58,0.00,,,0.00,Rainwise IP-100,2013-09-19 16:49:00,
2013-09-19 12:54:00,67.8,52.0,30.19,South,180,10.0,11.0,58,0.00,,,0.00,Rainwise IP-100,2013-09-19 16:54:00,
2013-09-19 13:00:00,68.0,53.0,30.19,SSE,157,10.5,11.0,58,0.00,,,0.00,Rainwise IP-100,2013-09-19 17:00:00,
2013-09-19 13:05:00,68.1,52.0,30.19,South,180,10.5,11.0,57,0.00,,,0.00,Rainwise IP-100,2013-09-19 17:05:00,
2013-09-19 13:10:00,68.2,52.0,30.18,SSE,157,9.8,11.0,56,0.00,,,0.00,Rainwise IP-100,2013-09-19 17:10:00,
2013-09-19 13:15:00,68.3,52.0,30.18,South,180,11.9,11.9,56,0.00,,,0.00,Rainwise IP-100,2013-09-19 17:15:00,
2013-09-19 13:20:00,68.5,52.0,30.18,SSE,157,10.5,12.0,56,0.00,,,0.00,Rainwise IP-100,2013-09-19 17:20:00,
2013-09-19 13:25:00,68.7,52.0,30.18,South,180,10.5,12.0,56,0.00,,,0.00,Rainwise IP-100,2013-09-19 17:25:00,
2013-09-19 13:30:00,68.8,52.0,30.17,SSE,157,11.0,12.0,56,0.00,,,0.00,Rainwise IP-100,2013-09-19 17:30:00,
2013-09-19 13:35:00,68.9,53.0,30.18,SSE,157,11.0,12.0,56,0.00,,,0.00,Rainwise IP-100,2013-09-19 17:35:00,
2013-09-19 13:41:00,69.1,52.0,30.18,SSE,157,11.4,12.0,55,0.00,,,0.00,Rainwise IP-100,2013-09-19 17:41:00,
2013-09-19 13:46:00,69.3,53.0,30.17,South,180,11.2,12.0,55,0.00,,,0.00,Rainwise IP-100,2013-09-19 17:46:00,
2013-09-19 13:51:00,69.5,53.0,30.17,South,180,10.7,12.0,56,0.00,,,0.00,Rainwise IP-100,2013-09-19 17:51:00,
2013-09-19 13:56:00,69.7,53.0,30.16,South,180,11.0,12.0,55,0.00,,,0.00,Rainwise IP-100,2013-09-19 17:56:00,
2013-09-19 14:01:00,69.9,53.0,30.16,SSE,157,10.3,12.0,54,0.00,,,0.00,Rainwise IP-100,2013-09-19 18:01:00,
2013-09-19 14:06:00,70.0,53.0,30.16,South,180,11.4,13.0,54,0.00,,,0.00,Rainwise IP-100,2013-09-19 18:06:00,
2013-09-19 14:11:00,70.2,53.0,30.16,SSE,157,11.9,13.0,54,0.00,,,0.00,Rainwise IP-100,2013-09-19 18:11:00,
2013-09-19 14:17:00,70.4,53.0,30.16,South,180,11.2,12.0,53,0.00,,,0.00,Rainwise IP-100,2013-09-19 18:17:00,
2013-09-19 14:22:00,70.5,53.0,30.15,South,180,11.0,13.0,53,0.00,,,0.00,Rainwise IP-100,2013-09-19 18:22:00,
2013-09-19 14:27:00,70.7,52.0,30.16,SSE,157,10.3,12.0,52,0.00,,,0.00,Rainwise IP-100,2013-09-19 18:27:00,
2013-09-19 14:32:00,70.7,53.0,30.16,South,180,12.6,13.0,53,0.00,,,0.00,Rainwise IP-100,2013-09-19 18:32:00,
2013-09-19 14:37:00,70.8,53.0,30.14,South,180,11.4,14.0,53,0.00,,,0.00,Rainwise IP-100,2013-09-19 18:37:00,
2013-09-19 14:42:00,70.9,53.0,30.15,South,180,11.4,13.0,52,0.00,,,0.00,Rainwise IP-100,2013-09-19 18:42:00,
2013-09-19 14:47:00,71.1,53.0,30.15,South,180,11.9,13.0,53,0.00,,,0.00,Rainwise IP-100,2013-09-19 18:47:00,
2013-09-19 14:52:00,71.2,53.0,30.15,SSE,157,11.0,14.0,53,0.00,,,0.00,Rainwise IP-100,2013-09-19 18:52:00,
2013-09-19 14:58:00,71.4,53.0,30.14,SSE,157,11.7,13.0,52,0.00,,,0.00,Rainwise IP-100,2013-09-19 18:58:00,
2013-09-19 15:03:00,71.5,53.0,30.14,SSE,157,11.7,13.0,52,0.00,,,0.00,Rainwise IP-100,2013-09-19 19:03:00,
2013-09-19 15:08:00,71.6,53.0,30.14,SSE,157,11.2,12.0,52,0.00,,,0.00,Rainwise IP-100,2013-09-19 19:08:00,
2013-09-19 15:13:00,71.7,53.0,30.14,SSE,157,11.2,14.0,51,0.00,,,0.00,Rainwise IP-100,2013-09-19 19:13:00,
2013-09-19 15:18:00,71.8,52.0,30.14,South,180,11.9,13.0,50,0.00,,,0.00,Rainwise IP-100,2013-09-19 19:18:00,
2013-09-19 15:23:00,72.0,53.0,30.14,SSE,157,11.9,12.0,50,0.00,,,0.00,Rainwise IP-100,2013-09-19 19:23:00,
2013-09-19 15:28:00,72.2,53.0,30.13,South,180,9.3,12.0,51,0.00,,,0.00,Rainwise IP-100,2013-09-19 19:28:00,
2013-09-19 15:34:00,72.4,53.0,30.14,South,180,11.4,14.0,50,0.00,,,0.00,Rainwise IP-100,2013-09-19 19:34:00,
2013-09-19 15:39:00,72.6,52.0,30.13,South,180,10.0,12.0,48,0.00,,,0.00,Rainwise IP-100,2013-09-19 19:39:00,
2013-09-19 15:44:00,72.7,53.0,30.14,South,180,9.6,11.0,50,0.00,,,0.00,Rainwise IP-100,2013-09-19 19:44:00,
2013-09-19 15:49:00,72.7,53.0,30.13,SSE,157,10.3,11.0,51,0.00,,,0.00,Rainwise IP-100,2013-09-19 19:49:00,
2013-09-19 15:54:00,72.8,53.0,30.13,South,180,10.0,12.0,50,0.00,,,0.00,Rainwise IP-100,2013-09-19 19:54:00,
2013-09-19 15:59:00,72.9,54.0,30.13,South,180,10.3,11.0,51,0.00,,,0.00,Rainwise IP-100,2013-09-19 19:59:00,
2013-09-19 16:04:00,73.0,54.0,30.13,SSE,157,10.5,11.0,52,0.00,,,0.00,Rainwise IP-100,2013-09-19 20:04:00,
2013-09-19 16:09:00,73.1,54.0,30.13,SSE,157,10.0,11.0,52,0.00,,,0.00,Rainwise IP-100,2013-09-19 20:09:00,
2013-09-19 16:15:00,73.1,54.0,30.13,South,180,11.0,11.0,52,0.00,,,0.00,Rainwise IP-100,2013-09-19 20:15:00,
2013-09-19 16:20:00,73.2,54.0,30.13,SSE,157,9.1,10.0,52,0.00,,,0.00,Rainwise IP-100,2013-09-19 20:20:00,
2013-09-19 16:25:00,73.2,54.0,30.12,SSE,157,8.9,10.0,52,0.00,,,0.00,Rainwise IP-100,2013-09-19 20:25:00,
2013-09-19 16:30:00,73.2,56.0,30.12,SSE,157,9.1,10.0,54,0.00,,,0.00,Rainwise IP-100,2013-09-19 20:30:00,
2013-09-19 16:35:00,73.1,55.0,30.12,SSE,157,8.6,9.0,54,0.00,,,0.00,Rainwise IP-100,2013-09-19 20:35:00,
2013-09-19 16:40:00,73.1,55.0,30.12,SSE,157,7.7,8.0,54,0.00,,,0.00,Rainwise IP-100,2013-09-19 20:40:00,
2013-09-19 16:45:00,73.1,55.0,30.11,SSE,157,6.5,8.0,54,0.00,,,0.00,Rainwise IP-100,2013-09-19 20:45:00,
2013-09-19 16:51:00,73.1,55.0,30.12,SSE,157,5.4,7.0,54,0.00,,,0.00,Rainwise IP-100,2013-09-19 20:51:00,
2013-09-19 16:56:00,73.6,56.0,30.12,SSE,157,5.4,6.0,54,0.00,,,0.00,Rainwise IP-100,2013-09-19 20:56:00,
2013-09-19 17:01:00,74.1,55.0,30.12,SSE,157,4.4,5.0,52,0.00,,,0.00,Rainwise IP-100,2013-09-19 21:01:00,
2013-09-19 17:06:00,74.4,54.0,30.12,SSE,157,4.7,5.0,50,0.00,,,0.00,Rainwise IP-100,2013-09-19 21:06:00,
2013-09-19 17:11:00,74.7,54.0,30.12,SSE,157,4.2,5.0,48,0.00,,,0.00,Rainwise IP-100,2013-09-19 21:11:00,
2013-09-19 17:16:00,75.0,53.0,30.12,SSE,157,4.9,5.0,46,0.00,,,0.00,Rainwise IP-100,2013-09-19 21:16:00,
2013-09-19 17:21:00,75.2,52.0,30.12,South,180,4.4,5.0,44,0.00,,,0.00,Rainwise IP-100,2013-09-19 21:21:00,
2013-09-19 17:26:00,75.5,52.0,30.12,South,180,4.7,5.0,44,0.00,,,0.00,Rainwise IP-100,2013-09-19 21:26:00,
2013-09-19 17:32:00,75.7,52.0,30.12,South,180,5.1,5.1,44,0.00,,,0.00,Rainwise IP-100,2013-09-19 21:32:00,
2013-09-19 17:37:00,75.6,52.0,30.12,South,180,6.5,9.0,44,0.00,,,0.00,Rainwise IP-100,2013-09-19 21:37:00,
2013-09-19 17:42:00,75.2,54.0,30.12,South,180,9.1,13.0,48,0.00,,,0.00,Rainwise IP-100,2013-09-19 21:42:00,
2013-09-19 17:47:00,74.7,56.0,30.12,SSW,202,6.1,12.0,52,0.00,,,0.00,Rainwise IP-100,2013-09-19 21:47:00,
2013-09-19 17:52:00,74.2,56.0,30.12,SSW,202,7.5,11.0,54,0.00,,,0.00,Rainwise IP-100,2013-09-19 21:52:00,
2013-09-19 17:57:00,73.9,56.0,30.12,SSW,202,10.0,11.0,54,0.00,,,0.00,Rainwise IP-100,2013-09-19 21:57:00,
2013-09-19 18:02:00,73.5,57.0,30.12,SSW,202,8.4,12.0,56,0.00,,,0.00,Rainwise IP-100,2013-09-19 22:02:00,
2013-09-19 18:08:00,73.2,57.0,30.12,SSW,202,6.3,12.0,57,0.00,,,0.00,Rainwise IP-100,2013-09-19 22:08:00,
2013-09-19 18:13:00,72.9,56.0,30.12,SSW,202,10.0,11.0,56,0.00,,,0.00,Rainwise IP-100,2013-09-19 22:13:00,
2013-09-19 18:18:00,72.6,56.0,30.13,SSW,202,8.2,14.0,56,0.00,,,0.00,Rainwise IP-100,2013-09-19 22:18:00,
2013-09-19 18:23:00,72.2,56.0,30.12,SSW,202,10.5,12.0,57,0.00,,,0.00,Rainwise IP-100,2013-09-19 22:23:00,
2013-09-19 18:28:00,71.8,56.0,30.12,SW,225,7.9,12.0,58,0.00,,,0.00,Rainwise IP-100,2013-09-19 22:28:00,
2013-09-19 18:33:00,71.4,56.0,30.13,SSW,202,8.2,12.0,58,0.00,,,0.00,Rainwise IP-100,2013-09-19 22:33:00,
2013-09-19 18:38:00,71.0,56.0,30.13,SSW,202,6.8,11.0,59,0.00,,,0.00,Rainwise IP-100,2013-09-19 22:38:00,
2013-09-19 18:43:00,70.7,56.0,30.13,SSW,202,6.3,10.0,60,0.00,,,0.00,Rainwise IP-100,2013-09-19 22:43:00,
2013-09-19 18:49:00,70.2,55.0,30.13,SSW,202,4.9,10.0,60,0.00,,,0.00,Rainwise IP-100,2013-09-19 22:49:00,
2013-09-19 18:54:00,69.7,56.0,30.14,SW,225,4.7,11.0,61,0.00,,,0.00,Rainwise IP-100,2013-09-19 22:54:00,
2013-09-19 18:59:00,69.3,56.0,30.14,South,180,4.9,12.0,62,0.00,,,0.00,Rainwise IP-100,2013-09-19 22:59:00,
2013-09-19 19:04:00,68.9,55.0,30.13,SSW,202,9.8,11.0,62,0.00,,,0.00,Rainwise IP-100,2013-09-19 23:04:00,
2013-09-19 19:09:00,68.6,55.0,30.14,SSW,202,6.8,12.0,63,0.00,,,0.00,Rainwise IP-100,2013-09-19 23:09:00,
2013-09-19 19:14:00,68.3,55.0,30.13,SSW,202,5.8,11.0,64,0.00,,,0.00,Rainwise IP-100,2013-09-19 23:14:00,
2013-09-19 19:19:00,68.0,55.0,30.14,SSW,202,3.5,12.0,64,0.00,,,0.00,Rainwise IP-100,2013-09-19 23:19:00,
2013-09-19 19:24:00,67.8,56.0,30.14,SSW,202,9.3,12.0,66,0.00,,,0.00,Rainwise IP-100,2013-09-19 23:24:00,
2013-09-19 19:29:00,67.6,56.0,30.14,SSW,202,6.3,12.0,67,0.00,,,0.00,Rainwise IP-100,2013-09-19 23:29:00,
2013-09-19 19:35:00,67.3,56.0,30.14,SSW,202,7.2,10.0,68,0.00,,,0.00,Rainwise IP-100,2013-09-19 23:35:00,
2013-09-19 19:40:00,67.1,56.0,30.14,SSW,202,7.7,12.0,68,0.00,,,0.00,Rainwise IP-100,2013-09-19 23:40:00,
2013-09-19 19:45:00,66.9,56.0,30.14,SSW,202,8.9,12.0,69,0.00,,,0.00,Rainwise IP-100,2013-09-19 23:45:00,
2013-09-19 19:50:00,66.7,56.0,30.14,SSW,202,5.6,11.0,69,0.00,,,0.00,Rainwise IP-100,2013-09-19 23:50:00,
2013-09-19 19:55:00,66.5,56.0,30.15,South,180,10.3,11.0,70,0.00,,,0.00,Rainwise IP-100,2013-09-19 23:55:00,
2013-09-19 20:00:00,66.3,56.0,30.15,SSW,202,8.9,10.0,70,0.00,,,0.00,Rainwise IP-100,2013-09-20 00:00:00,
2013-09-19 20:05:00,66.1,56.0,30.15,SSW,202,8.4,9.0,71,0.00,,,0.00,Rainwise IP-100,2013-09-20 00:05:00,
2013-09-19 20:11:00,66.0,56.0,30.15,SSW,202,4.4,9.0,72,0.00,,,0.00,Rainwise IP-100,2013-09-20 00:11:00,
2013-09-19 20:16:00,65.8,56.0,30.15,SW,225,5.4,7.0,73,0.00,,,0.00,Rainwise IP-100,2013-09-20 00:16:00,
2013-09-19 20:21:00,65.6,57.0,30.16,SSW,202,6.1,9.0,74,0.00,,,0.00,Rainwise IP-100,2013-09-20 00:21:00,
2013-09-19 20:26:00,65.4,57.0,30.16,SW,225,5.8,8.0,74,0.00,,,0.00,Rainwise IP-100,2013-09-20 00:26:00,
2013-09-19 20:31:00,65.2,57.0,30.15,SSW,202,4.9,9.0,75,0.00,,,0.00,Rainwise IP-100,2013-09-20 00:31:00,
2013-09-19 20:36:00,65.2,57.0,30.16,SSW,202,4.0,8.0,75,0.00,,,0.00,Rainwise IP-100,2013-09-20 00:36:00,
2013-09-19 20:41:00,65.1,57.0,30.16,WSW,247,4.0,7.0,76,0.00,,,0.00,Rainwise IP-100,2013-09-20 00:41:00,
2013-09-19 20:46:00,65.1,57.0,30.16,WSW,247,4.4,7.0,76,0.00,,,0.00,Rainwise IP-100,2013-09-20 00:46:00,
2013-09-19 20:52:00,64.9,57.0,30.16,WSW,247,2.1,7.0,76,0.00,,,0.00,Rainwise IP-100,2013-09-20 00:52:00,
2013-09-19 20:57:00,64.7,56.0,30.15,SW,225,2.8,5.0,76,0.00,,,0.00,Rainwise IP-100,2013-09-20 00:57:00,
2013-09-19 21:02:00,64.5,57.0,30.16,WSW,247,4.9,7.0,77,0.00,,,0.00,Rainwise IP-100,2013-09-20 01:02:00,
2013-09-19 21:07:00,64.4,57.0,30.16,WSW,247,1.6,6.0,77,0.00,,,0.00,Rainwise IP-100,2013-09-20 01:07:00,
2013-09-19 21:12:00,64.4,57.0,30.16,WSW,247,2.3,4.0,78,0.00,,,0.00,Rainwise IP-100,2013-09-20 01:12:00,
2013-09-19 21:17:00,64.2,57.0,30.16,WSW,247,1.4,4.0,79,0.00,,,0.00,Rainwise IP-100,2013-09-20 01:17:00,
2013-09-19 21:22:00,63.9,57.0,30.16,WSW,247,2.8,5.0,79,0.00,,,0.00,Rainwise IP-100,2013-09-20 01:22:00,
2013-09-19 21:28:00,63.8,57.0,30.15,WSW,247,4.0,4.0,80,0.00,,,0.00,Rainwise IP-100,2013-09-20 01:28:00,
2013-09-19 21:33:00,63.7,57.0,30.16,WSW,247,4.2,6.0,81,0.00,,,0.00,Rainwise IP-100,2013-09-20 01:33:00,
2013-09-19 21:38:00,63.7,57.0,30.15,West,270,3.5,5.0,81,0.00,,,0.00,Rainwise IP-100,2013-09-20 01:38:00,
2013-09-19 21:43:00,63.6,57.0,30.15,West,270,2.6,4.0,82,0.00,,,0.00,Rainwise IP-100,2013-09-20 01:43:00,
2013-09-19 21:48:00,63.4,57.0,30.15,West,270,2.8,3.0,82,0.00,,,0.00,Rainwise IP-100,2013-09-20 01:48:00,
2013-09-19 21:53:00,63.1,57.0,30.15,WNW,292,2.6,3.0,83,0.00,,,0.00,Rainwise IP-100,2013-09-20 01:53:00,
2013-09-19 21:58:00,62.5,57.0,30.16,NW,315,3.0,4.0,85,0.00,,,0.00,Rainwise IP-100,2013-09-20 01:58:00,
2013-09-19 22:03:00,61.9,57.0,30.15,NW,315,3.3,4.0,86,0.00,,,0.00,Rainwise IP-100,2013-09-20 02:03:00,
2013-09-19 22:09:00,61.3,57.0,30.15,NNW,337,3.5,4.0,87,0.00,,,0.00,Rainwise IP-100,2013-09-20 02:09:00,
2013-09-19 22:10:00,61.2,57.0,30.15,NNW,337,3.5,4.0,87,0.00,,,0.00,Rainwise IP-100,2013-09-20 02:10:00,
2013-09-19 22:15:00,60.9,57.0,30.15,NNW,337,4.0,4.0,88,0.00,,,0.00,Rainwise IP-100,2013-09-20 02:15:00,
2013-09-19 22:20:00,60.7,57.0,30.15,NNW,337,4.2,4.2,88,0.00,,,0.00,Rainwise IP-100,2013-09-20 02:20:00,
2013-09-19 22:25:00,60.5,57.0,30.15,NNW,337,3.7,4.0,88,0.00,,,0.00,Rainwise IP-100,2013-09-20 02:25:00,
2013-09-19 22:30:00,60.3,56.0,30.15,NNW,337,4.0,4.0,88,0.00,,,0.00,Rainwise IP-100,2013-09-20 02:30:00,
2013-09-19 22:35:00,60.1,56.0,30.15,NNW,337,4.0,4.0,88,0.00,,,0.00,Rainwise IP-100,2013-09-20 02:35:00,
2013-09-19 22:41:00,59.9,56.0,30.14,NNW,337,4.0,4.0,88,0.00,,,0.00,Rainwise IP-100,2013-09-20 02:41:00,
2013-09-19 22:46:00,59.7,56.0,30.15,NNW,337,4.0,4.0,88,0.00,,,0.00,Rainwise IP-100,2013-09-20 02:46:00,
2013-09-19 22:51:00,59.4,56.0,30.14,NNW,337,3.7,4.0,89,0.00,,,0.00,Rainwise IP-100,2013-09-20 02:51:00,
2013-09-19 22:56:00,59.1,56.0,30.15,NNW,337,3.0,4.0,89,0.00,,,0.00,Rainwise IP-100,2013-09-20 02:56:00,
2013-09-19 23:01:00,58.9,56.0,30.15,NNW,337,2.8,4.0,89,0.00,,,0.00,Rainwise IP-100,2013-09-20 03:01:00,
2013-09-19 23:06:00,58.7,56.0,30.14,NNW,337,4.0,4.0,90,0.00,,,0.00,Rainwise IP-100,2013-09-20 03:06:00,
2013-09-19 23:11:00,58.4,55.0,30.14,NNW,337,3.5,4.0,90,0.00,,,0.00,Rainwise IP-100,2013-09-20 03:11:00,
2013-09-19 23:16:00,58.2,56.0,30.14,NNW,337,4.0,4.0,91,0.00,,,0.00,Rainwise IP-100,2013-09-20 03:16:00,
2013-09-19 23:22:00,58.1,56.0,30.14,NNW,337,5.4,5.4,91,0.00,,,0.00,Rainwise IP-100,2013-09-20 03:22:00,
2013-09-19 23:27:00,58.1,56.0,30.14,NNW,337,4.9,6.0,91,0.00,,,0.00,Rainwise IP-100,2013-09-20 03:27:00,
2013-09-19 23:32:00,58.1,56.0,30.14,NNW,337,4.2,5.0,91,0.00,,,0.00,Rainwise IP-100,2013-09-20 03:32:00,
2013-09-19 23:37:00,57.9,56.0,30.14,NNW,337,4.7,5.0,92,0.00,,,0.00,Rainwise IP-100,2013-09-20 03:37:00,
2013-09-19 23:42:00,57.6,55.0,30.14,NNW,337,4.4,6.0,92,0.00,,,0.00,Rainwise IP-100,2013-09-20 03:42:00,
2013-09-19 23:47:00,57.5,55.0,30.14,NNW,337,3.7,5.0,92,0.00,,,0.00,Rainwise IP-100,2013-09-20 03:47:00,
2013-09-19 23:52:00,57.3,54.0,30.14,NNW,337,4.0,6.0,92,0.00,,,0.00,Rainwise IP-100,2013-09-20 03:52:00,
2013-09-19 23:58:00,57.1,54.0,30.14,NNW,337,3.3,5.0,92,0.00,,,0.00,Rainwise IP-100,2013-09-20 03:58:00,